sat.trackr.live / text

‹ back to catalog

FLOCK 4Q-30

NORAD 58286 · 2023-174AG

PAYLOAD ACTIVE UNKNOWN

§ Identity

Operator
Country
US
Launch date
2023-11-11
Launch site
AFWTR
Launch vehicle
Mass (kg)
RCS (m²)

Purposes: earth_obs

External: N2YO · Heavens-Above · Gunter

§ Orbital elements

Epoch: 2026-06-16T04:27:28.393920Z

Period
92.41 min
Inclination
97.3943°
Eccentricity
0.0006130
Mean motion
15.58199153 rev/d
Perigee alt
388.7 km
Apogee alt
397.0 km
Semi-major
6,771.0 km
B*
6.0587e-4
RAAN
259.5556°
Arg perigee
154.3137°
Mean anomaly
205.8425°
Rev number
14,564

§ Raw data

FLOCK 4Q-301 58286U 23174AG  26167.18574530  .00045836  00000+0  60587-3 0  99952 58286  97.3943 259.5556 0006130 154.3137 205.8425 15.58199153145640

JSON: /api/v1/satellites/58286 · /tle

For live sub-satellite position, see the globe view (requires WebGL).

§ Visibility from observer

Set your observer location to see the next 7 days of passes ≥ 10°. The values pass through the URL so the page stays shareable.

No JS? Fill the form by hand. The geolocation button needs JavaScript.